Hope, British Columbia

6:58 AM PDT on August 18, 2017 (GMT -0700)
Hope

Weather History for CYHE - October, 2013

Change the Weather History Date:

Thursday, October 10, 2013

  Actual Average Record
Temperature  
Mean Temperature 50 °F -  
Max Temperature 56 °F 54 °F 71 °F (2006)
Min Temperature 43 °F 40 °F 37 °F (2008)
Degree Days  
Heating Degree Days 16    
Moisture  
Dew Point 44 °F    
Average Humidity 85    
Maximum Humidity 100    
Minimum Humidity 52    
Precipitation  
Precipitation 0.00 in 0.29 in - ()
Sea Level Pressure  
Sea Level Pressure 30.00 in    
Wind  
Wind Speed 2 mph ()    
Max Wind Speed 8 mph    
Max Gust Speed -    
Visibility 8.9 miles    
Events      
Averages and records for this station are not official NWS values.
T = Trace of Precipitation, MM = Missing Value Source: Averaged Metar Reports

Daily Weather History Graph

Daily Weather History Graph

Search for Another Location

Airport or City:

Trip Planner

Search our weather history database for the weather conditions in past years. The results will help you decide how hot, cold, wet, or windy it might be!

Date:

Astronomy

Oct. 10, 2013 Rise Set
Actual Time 7:19 AM PDT 6:24 PM PDT
Civil Twilight 6:47 AM PDT 6:56 PM PDT
Nautical Twilight 6:10 AM PDT 7:33 PM PDT
Astronomical Twilight 5:33 AM PDT 8:10 PM PDT
Moon 1:36 PM PDT (10/10) 10:49 PM PDT (10/10)
Length of Visible Light 12h 09m
Length of Day
11h 05m
Waxing Crescent, 37% of the Moon is Illuminated
Oct 10
Waxing Crescent
Oct 11
First Quarter
Oct 18
Full
Oct 26
Last Quarter
Nov 3
New

Hourly Weather History & Observations

Time (PDT) Temp. Windchill Dew Point Humidity Pressure Visibility Wind Dir Wind Speed Gust Speed Precip Events Conditions
12:00 AM 46.4 °F - 44.6 °F 93% 29.97 in 9.0 mi Calm Calm - N/A   Overcast
1:00 AM 46.4 °F - 44.6 °F 93% 29.97 in 9.0 mi Calm Calm - N/A   Overcast
2:00 AM 46 °F - 44 °F 92% 29.95 in - SW 1.2 mph - -  
2:00 AM 46.4 °F - 44.6 °F 93% 29.95 in 9.0 mi Calm Calm - N/A   Overcast
3:00 AM 42.8 °F 41.1 °F 42.8 °F 100% 29.94 in 6.0 mi SSW 3.5 mph - N/A   Overcast
4:00 AM 44.6 °F - 42.8 °F 93% 29.94 in 9.0 mi Calm Calm - N/A   Overcast
5:00 AM 44 °F - 44 °F 97% 29.95 in - SE 1.2 mph - -  
5:00 AM 44.6 °F - 44.6 °F 100% 29.95 in 9.0 mi SE 2.3 mph - N/A   Overcast
6:00 AM 44.6 °F 42.2 °F 44.6 °F 100% 29.96 in 9.0 mi ESE 4.6 mph - N/A   Overcast
7:00 AM 44.6 °F - 42.8 °F 93% 29.95 in 9.0 mi Variable 2.3 mph - N/A   Overcast
8:00 AM 45 °F - 44 °F 93% 29.95 in - ENE 1.2 mph - -  
8:00 AM 44.6 °F - 44.6 °F 100% 29.96 in 9.0 mi Calm Calm - N/A   Overcast
9:00 AM 46.4 °F 44.3 °F 44.6 °F 93% 29.97 in 9.0 mi ESE 4.6 mph - N/A   Overcast
10:00 AM 48.2 °F - 44.6 °F 87% 29.99 in 9.0 mi ESE 4.6 mph - N/A   Overcast
11:00 AM 48 °F - 44 °F 83% 29.99 in - Calm Calm - -  
11:00 AM 48.2 °F - 44.6 °F 87% 29.99 in 9.0 mi Calm Calm - N/A   Overcast
12:00 PM 51.8 °F - 46.4 °F 82% 29.99 in 9.0 mi Calm Calm - N/A   Mostly Cloudy
1:00 PM 55.4 °F - 44.6 °F 67% 29.99 in 9.0 mi West 4.6 mph - N/A   Mostly Cloudy
2:00 PM 56 °F - 43 °F 52% 29.98 in - West 8.1 mph - -  
2:00 PM 57.2 °F - 42.8 °F 59% 29.99 in 9.0 mi West 8.1 mph - N/A   Overcast
3:00 PM 57.2 °F - 44.6 °F 63% 29.99 in 9.0 mi West 8.1 mph - N/A   Overcast
4:00 PM 55.4 °F - 44.6 °F 67% 29.99 in 9.0 mi NW 3.5 mph - N/A   Overcast
5:00 PM 55 °F - 45 °F 59% 29.99 in - West 3.5 mph - -  
5:00 PM 55.4 °F - 44.6 °F 67% 30.00 in 9.0 mi West 3.5 mph - N/A   Partly Cloudy
6:00 PM 53.6 °F - 44.6 °F 72% 30.00 in 9.0 mi West 4.6 mph - N/A   Scattered Clouds
7:00 PM 50.0 °F - 46.4 °F 87% 30.02 in 9.0 mi ENE 3.5 mph - N/A   Scattered Clouds
8:00 PM 47 °F - 44 °F 83% 30.04 in - NE 2.3 mph - -  
8:00 PM 48.2 °F - 44.6 °F 87% 30.04 in 9.0 mi Calm Calm - N/A   Partly Cloudy
8:17 PM 48.2 °F - 44.6 °F 87% 30.04 in 9.0 mi East 3.5 mph - N/A   Mostly Cloudy
8:27 PM 46.4 °F 45.2 °F 44.6 °F 93% 30.05 in 9.0 mi SE 3.5 mph - N/A   Mostly Cloudy
9:00 PM 48.2 °F - 44.6 °F 87% 30.06 in 9.0 mi Variable 2.3 mph - N/A   Overcast
9:01 PM 48.2 °F - 44.6 °F 87% 30.06 in 9.0 mi East 2.3 mph - N/A   Overcast
9:21 PM 48.2 °F - 44.6 °F 87% 30.06 in 9.0 mi Variable 2.3 mph - N/A   Overcast
10:00 PM 48.2 °F - 44.6 °F 87% 30.07 in 9.0 mi East 4.6 mph - N/A   Mostly Cloudy
11:00 PM 47 °F - 44 °F 87% 30.08 in - NNE 2.3 mph - -  
11:00 PM 46.4 °F 45.2 °F 44.6 °F 93% 30.09 in 9.0 mi ENE 3.5 mph - N/A   Overcast